Location: Squirrel Cove
(50.1074°N, 124.9139°W)
Time: 18:14:42
(UTC-07:00)

Envisat - Pass Details

Date: 15 September 2024
Orbit: 762 x 764 km, 98.3° (Epoch: 04 October)

Event Time Altitude Azimuth Distance (km) Brightness Sun altitude
Rises 03:46:55 0° 21° (NNE) 3,239 7.3 -27.9°
Reaches altitude 10° 03:49:29 10° 32° (NNE) 2,307 6.4 -27.6°
Maximum altitude 03:54:01 32° 95° (E) 1,298 4.5 -27.1°
Enters shadow 03:56:17 22° 138° (SE) 1,612 4.6 -26.8°
